Trinidad, CO

3:03 PM MDT on March 30, 2017 (GMT -0600)
Stokes

Weather History for KTAD - October, 2013

Change the Weather History Date:

Saturday, October 12, 2013

  Actual Average Record
Temperature  
Mean Temperature 49 °F 54 °F  
Max Temperature 64 °F 70 °F 88 °F (1950)
Min Temperature 33 °F 38 °F 17 °F (1969)
Degree Days  
Heating Degree Days 16 11  
Month to date heating degree days 96 114  
Since 1 July heating degree days 137 224  
Cooling Degree Days 0 0  
Month to date cooling degree days 0 0  
Year to date cooling degree days 1068  
Moisture  
Dew Point 32 °F    
Average Humidity 64    
Maximum Humidity 100    
Minimum Humidity 27    
Precipitation  
Precipitation 0.00 in 0.02 in 0.84 in (1974)
Month to date precipitation 0.06  
Year to date precipitation 9.50  
Sea Level Pressure  
Sea Level Pressure 30.07 in    
Wind  
Wind Speed 7 mph (SSW)    
Max Wind Speed 24 mph    
Max Gust Speed 30 mph    
Visibility 10 miles    
Events      
T = Trace of Precipitation, MM = Missing Value Source: NWS Daily Summary

Daily Weather History Graph

Daily Weather History Graph

Search for Another Location

Airport or City:

Trip Planner

Search our weather history database for the weather conditions in past years. The results will help you decide how hot, cold, wet, or windy it might be!

Date:

Astronomy

Oct. 12, 2013 Rise Set
Actual Time 7:02 AM MDT 6:24 PM MDT
Civil Twilight 6:36 AM MDT 6:50 PM MDT
Nautical Twilight 6:06 AM MDT 7:20 PM MDT
Astronomical Twilight 5:36 AM MDT 7:50 PM MDT
Moon 2:28 PM MDT (10/12) 12:17 AM MDT (10/12)
Length of Visible Light 12h 13m
Length of Day
11h 21m
First Quarter, 59% of the Moon is Illuminated
Oct 12
First Quarter
Oct 18
Full
Oct 26
Last Quarter
Nov 3
New
Nov 9
First Quarter

Hourly Weather History & Observations

Time (MDT) Temp. Windchill Dew Point Humidity Pressure Visibility Wind Dir Wind Speed Gust Speed Precip Events Conditions
12:54 AM 39.9 °F 35.8 °F 37.0 °F 89% 30.01 in 10.0 mi NW 5.8 mph - N/A   Clear
1:54 AM 37.0 °F 33.3 °F 35.1 °F 93% 30.03 in 10.0 mi WNW 4.6 mph - N/A   Clear
2:54 AM 37.0 °F 33.3 °F 35.1 °F 93% 30.02 in 8.0 mi West 4.6 mph - N/A   Clear
3:54 AM 36.0 °F - 35.1 °F 97% 30.03 in 10.0 mi Calm Calm - N/A   Clear
4:54 AM 35.1 °F - 33.1 °F 92% 30.06 in 10.0 mi Calm Calm - N/A   Clear
5:54 AM 37.0 °F - 35.1 °F 93% 30.08 in 9.0 mi Calm Calm - N/A   Clear
6:54 AM 33.1 °F 26.9 °F 30.9 °F 92% 30.13 in 10.0 mi WSW 6.9 mph - N/A   Clear
7:54 AM 37.9 °F 33.5 °F 34.0 °F 86% 30.16 in 10.0 mi SW 5.8 mph - N/A   Clear
8:54 AM 46.0 °F - 35.1 °F 66% 30.15 in 10.0 mi Calm Calm - N/A   Clear
9:54 AM 50.0 °F - 33.1 °F 52% 30.15 in 10.0 mi SE 5.8 mph - N/A   Clear
10:54 AM 55.0 °F - 33.1 °F 43% 30.12 in 10.0 mi South 6.9 mph - N/A   Clear
11:54 AM 55.9 °F - 30.9 °F 39% 30.11 in 10.0 mi Variable 3.5 mph - N/A   Mostly Cloudy
12:54 PM 60.1 °F - 28.9 °F 31% 30.07 in 10.0 mi SSW 8.1 mph - N/A   Partly Cloudy
1:54 PM 60.1 °F - 28.0 °F 30% 30.05 in 10.0 mi Variable 4.6 mph 17.3 mph N/A   Clear
2:54 PM 63.0 °F - 28.9 °F 28% 30.02 in 10.0 mi South 12.7 mph 17.3 mph N/A   Clear
3:54 PM 63.0 °F - 28.9 °F 28% 30.00 in 10.0 mi South 12.7 mph 20.7 mph N/A   Clear
4:54 PM 62.1 °F - 30.0 °F 30% 30.01 in 10.0 mi South 15.0 mph - N/A   Clear
5:54 PM 57.9 °F - 30.9 °F 36% 30.03 in 10.0 mi South 12.7 mph - N/A   Clear
6:54 PM 55.0 °F - 32.0 °F 42% 30.07 in 10.0 mi South 15.0 mph - N/A   Clear
7:54 PM 55.0 °F - 32.0 °F 42% 30.07 in 10.0 mi SSE 13.8 mph - N/A   Clear
8:54 PM 53.1 °F - 32.0 °F 45% 30.07 in 10.0 mi South 15.0 mph - N/A   Clear
9:54 PM 53.1 °F - 32.0 °F 45% 30.06 in 10.0 mi South 19.6 mph 28.8 mph N/A   Clear
10:54 PM 51.1 °F - 32.0 °F 48% 30.07 in 10.0 mi SW 4.6 mph - N/A   Clear
11:54 PM 46.9 °F - 32.0 °F 56% 30.08 in 10.0 mi NW 6.9 mph - N/A   Clear